Regional Weather Roundup
Issued by NWS

Home | Current Version | Previous Version | Text Only | Print | Product List | Glossary On
Versions: 1 2 3 4 5 6 7 8 9 10 11 12 13 14 15 16 17 18 19 20 21 22 23 24 25 26 27 28 29 30 31 32 33 34 35 36 37 38 39 40 41 42 43 44 45 46 47 48 49 50
530
ASUS43 KLSX 270210
RWRMO

WEATHER SUMMARY FOR MISSOURI
NATIONAL WEATHER SERVICE SPRINGFIELD MO
900 PM CDT MON SEP 26 2016

NOTE: "FAIR" INDICATES FEW OR NO CLOUDS BELOW 12,000 FEET WITH NO
       SIGNIFICANT WEATHER AND/OR OBSTRUCTIONS TO VISIBILITY.
       CURRENT SKY AND/OR WEATHER CONDITIONS ARE NOT AVAILABLE FOR
       CHILLICOTHE AND FARMINGTON.

MOZ001>031-035>038-043-044-053-054-270300-
...NORTHERN AND WESTERN MISSOURI...

CITY           SKY/WX    TMP DP  RH WIND       PRES   REMARKS
KANSAS CTY INT CLEAR     60  46  59 SW7       30.12S
KANSAS C DTWN  CLEAR     66  46  48 SW6       30.12S
LEE`S SUMMIT   CLEAR     61  49  64 SW6       30.13S
ST JOSEPH      CLEAR     59  51  75 S5        30.10S
CHILLICOTHE      N/A     56  50  80 CALM      30.11S
KIRKSVILLE     CLEAR     59  44  57 SW5       30.08F

$$
MOZ066>068-077>081-088>096-101>105-270300-
...SOUTHWEST MISSOURI...

CITY           SKY/WX    TMP DP  RH WIND       PRES   REMARKS
SPRINGFIELD    CLEAR     55  47  74 CALM      30.16R
JOPLIN         CLEAR     55  47  74 CALM      30.17R
BRANSON        CLEAR     54  48  82 CALM      30.17R

$$
MOZ032>034-039>042-045>050-055>058-069>072-270300-
...CENTRAL MISSOURI...

CITY           SKY/WX    TMP DP  RH WIND       PRES   REMARKS
COLUMBIA       CLEAR     61  44  53 W5        30.13R HAZE
JEFFERSON CITY CLEAR     56  50  80 CALM      30.12R
ROLLA          CLEAR     54  45  71 W6        30.12S
SEDALIA        CLEAR     60  45  57 SW7       30.14S
WHITEMAN AFB   CLEAR     57  48  73 S6        30.12S

$$
MOZ051-052-059>065-270300-
...EAST CENTRAL MISSOURI...

CITY           SKY/WX    TMP DP  RH WIND       PRES   REMARKS
ST LOUIS INTL  CLEAR     63  44  50 W6        30.10S
SPIRIT OF STL  CLEAR     55  50  83 CALM      30.10R
ST CHARLES     CLEAR     56  49  77 CALM      30.09R

$$
MOZ072>076-082>087-097>100-106>115-270300-
...SOUTH CENTRAL AND SOUTHEAST MISSOURI...

CITY           SKY/WX    TMP DP  RH WIND       PRES   REMARKS
CAPE GIRARDEAU CLEAR     55  51  86 SW3       30.11
FARMINGTON     CLEAR     54  51  90 CALM      30.14R
POPLAR BLUFF   CLEAR     58  55  90 CALM      30.12R
WEST PLAINS    CLEAR     55  47  74 CALM      30.16S

$$




USA.gov is the U.S. government's official web portal to all federal, state and local government web resources and services.